Location: Unspecified
(40.7945°N, 111.1337°W)
Time: 14:04:09
(UTC-06:00)

CZ-3 Stage 3 - Visible Passes

Search period start: 25 May 2017 00:00
Search period end: 04 June 2017 00:00
Orbit: 406 x 34792 km, 30.8° (Epoch: 24 May)

Date Brightness Start Highest point End Pass type
(mag) Time Alt. Az. Time Alt. Az. Time Alt. Az.
25 May 6.9 15:27:55 10° SSW 21:55:56 39° ESE 00:31:58 10° SE visible
26 May 9.3 22:42:09 10° W 00:18:02 45° W 05:16:04 10° W visible
27 May 8.1 18:54:39 10° WSW 19:40:35 76° S 04:03:27 10° SSW visible
28 May 6.8 15:18:34 10° SSW 21:45:01 38° ESE 00:21:51 10° SE visible
29 May 9.4 22:32:46 10° W 00:07:13 45° W 05:02:01 10° W visible
30 May 8.1 18:45:21 10° WSW 19:30:19 75° S 03:52:58 10° SSW visible
31 May 6.8 15:09:12 10° SSW 21:34:03 38° SE 23:56:10 18° SE visible
01 Jun 9.4 22:23:22 10° WNW 23:56:24 45° W 04:47:57 10° W visible
02 Jun 8.2 18:36:03 10° WSW 19:20:05 75° S 03:09:28 23° SSW visible
